Weather Roundup
Issued by NWS Springfield, MO

Home | Current Version | Previous Version | Text Only | Print | Product List | Glossary On
Versions: 1 2 3 4 5 6 7 8 9 10 11 12 13 14 15 16 17 18 19 20 21 22 23 24 25 26 27 28 29 30 31 32 33 34 35 36 37 38 39 40 41 42 43 44 45 46 47 48 49 50
000
NZUS99 KSGF 281507
HRRSGF

HOURLY WEATHER
NATIONAL WEATHER SERVICE SPRINGFIELD MO
1000 AM CDT SAT MAR 28 2015

......SGF CWA......

CITY           SKY/WX    TMP DP  RH WIND       PRES   REMARKS
SPRINGFIELD    CLOUDY    39  25  57 E13       30.18R WCI  31
JOPLIN         MOSUNNY   48  31  51 SE9       30.14R
WEST PLAINS    LGT SNOW  32  28  85 SE7       30.27R VSB 3/4 WCI  26
ROLLA          CLOUDY    33  27  78 S7        30.25R WCI  27
OSAGE BEACH    CLOUDY    36  30  80 SE8       30.26R WCI  29
BRANSON        CLOUDY    39  30  70 E14       30.19R WCI  31

......SURROUNDING SGF CWA......

CITY           SKY/WX    TMP DP  RH WIND       PRES   REMARKS
CHANUTE        MOSUNNY   48  32  53 SE12      30.10R
PARSONS        MOSUNNY   49  37  63 SE8       30.10F
COFFEYVILLE    MOSUNNY   50  35  56 S12       30.09R
EMPORIA        SUNNY     45  30  55 SE14      30.07S
GROVE OK       PTSUNNY   50  37  62 SE3       30.12R
ROGERS AR      PTSUNNY   43  36  76 E10       30.13R
SILOAM SPRINGS PTSUNNY   45  34  65 S8        30.11F
HARRISON AR    CLOUDY    41  32  70 E12       30.19R
NEAR YELLVILLE CLOUDY    39  27  60 E9        30.23R WCI  33

......KANSAS AND MISSOURI......

CITY           SKY/WX    TMP DP  RH WIND       PRES   REMARKS
KANSAS CTY INT CLOUDY    39  29  67 SE17      30.17R WCI  30
DOWNTOWN KC    CLOUDY    41  30  65 SE13      30.18R
COLUMBIA       CLOUDY    35  26  69 SE9       30.25S WCI  28
SEDALIA        CLOUDY    37  30  75 E13       30.24R WCI  29
ST JOSEPH      CLOUDY    39  29  67 SE15      30.19R WCI  31
ST LOUIS       MOSUNNY   35  17  47 SE8       30.32R WCI  29
SPIRIT OF STL  MOSUNNY   36  18  48 E7        30.31R WCI  30
KIRKSVILLE     CLOUDY    36  19  50 SE13      30.26R WCI  27
WICHITA        MOSUNNY   50  37  61 S7        30.02S
TOPEKA         SUNNY     43  26  51 E17       30.14R
OLATHE         CLOUDY    39  28  64 E17       30.15S WCI  30

......TENNESSEE......

CITY           SKY/WX    TMP DP  RH WIND       PRES   REMARKS
MEMPHIS        CLOUDY    40  20  44 SE7       30.31R
NASHVILLE      MOSUNNY   35  12  38 NE9       30.28R WCI  28

......ARKANSAS.......

CITY           SKY/WX    TMP DP  RH WIND       PRES   REMARKS
FAYETTEVILLE   CLOUDY    43  39  86 CALM      30.13S
FT SMITH       LGT RAIN  46  35  65 E8        30.14F
LITTLE ROCK    LGT RAIN  43  36  76 E12       30.25R

......OKLAHOMA.......

CITY           SKY/WX    TMP DP  RH WIND       PRES   REMARKS
TULSA          MOSUNNY   52  37  56 S10       30.10F
PONCA CITY     SUNNY     55  39  54 S10G20    30.02F
MCALESTER      PTSUNNY   53  32  44 SE9       30.10F
OKLAHOMA CITY  MOSUNNY   56  40  55 SW6       30.05R

......IOWA............

CITY           SKY/WX    TMP DP  RH WIND       PRES   REMARKS
DES MOINES     MOSUNNY   39  14  36 S14       30.25R WCI  31
QUAD CITIES    SUNNY     30  17  58 SE7       30.34R WCI  23

......ILLINOIS........

CITY           SKY/WX    TMP DP  RH WIND       PRES   REMARKS
QUINCY         SUNNY     33  16  49 SE10      30.31R WCI  25
CHICAGO        MOSUNNY   29  10  45 NE7       30.33R WCI  22



USA.gov is the U.S. government's official web portal to all federal, state and local government web resources and services.